GW1125 Weather Reports


time (UTC)temp
C
wind
direction
speed
KPH
gust
KPH
rain 1hr
cm
rain 24hr
cm
rain mn
cm
humidity
%
barometer
mb
20260510031137 16 0.0 0.0 0.00 0.00 0.00 65 1014.5
20260510030617 17 0.0 0.0 0.00 0.00 0.00 63 1014.6
20260510030117 17 0.0 0.0 0.00 0.00 0.00 62 1014.6
20260510025617 17 0.0 0.0 0.00 0.00 0.00 63 1014.6
20260510025118 17 0.0 0.0 0.00 0.00 0.00 60 1014.7
20260510024637 17 0.0 0.0 0.00 0.00 0.00 59 1014.8
20260510024117 18 86 0.0 1.6 0.00 0.00 0.00 58 1014.8
20260510023617 18 0.0 0.0 0.00 0.00 0.00 58 1014.9
20260510023117 18 0.0 0.0 0.00 0.00 0.00 58 1014.8
20260510022617 18 0.0 0.0 0.00 0.00 0.00 57 1014.9
20260510022117 18 0.0 0.0 0.00 0.00 0.00 58 1014.7
20260510021617 18 0.0 0.0 0.00 0.00 0.00 56 1014.9
20260510021117 18 78 0.0 1.6 0.00 0.00 0.00 55 1014.8
20260510020617 19 77 1.6 3.2 0.00 0.00 0.00 54 1015.0
20260510020138 19 93 0.0 1.6 0.00 0.00 0.00 54 1014.9
20260510015617 19 53 3.2 4.8 0.00 0.00 0.00 54 1014.9
20260510015117 19 105 0.0 1.6 0.00 0.00 0.00 53 1015.1
20260510014617 19 110 0.0 1.6 0.00 0.00 0.00 53 1015.1
20260510014117 19 71 1.6 3.2 0.00 0.00 0.00 53 1015.4
20260510013617 20 0.0 0.0 0.00 0.00 0.00 53 1015.4
20260510013117 20 102 1.6 1.6 0.00 0.00 0.00 51 1015.3
20260510012617 20 0.0 0.0 0.00 0.00 0.00 51 1015.4
20260510012116 20 0.0 0.0 0.00 0.00 0.00 51 1015.4
20260510011617 20 0.0 0.0 0.00 0.00 0.00 51 1015.4
20260510011117 20 124 1.6 3.2 0.00 0.00 0.00 50 1015.6
20260510010617 20 0.0 0.0 0.00 0.00 0.00 50 1015.7
20260510010117 20 51 3.2 3.2 0.00 0.00 0.00 49 1015.4
20260510005637 20 0.0 0.0 0.00 0.00 0.00 50 1015.5
20260510005117 20 88 1.6 3.2 0.00 0.00 0.00 50 1015.7
20260510004637 20 108 1.6 4.8 0.00 0.00 0.00 51 1015.8
20260510004117 20 86 0.0 1.6 0.00 0.00 0.00 50 1015.8
20260510003617 20 37 4.8 6.4 0.00 0.00 0.00 49 1015.9
20260510003117 20 89 0.0 1.6 0.00 0.00 0.00 51 1015.8
20260510002637 20 45 1.6 3.2 0.00 0.00 0.00 48 1015.9
20260510002118 20 49 3.2 3.2 0.00 0.00 0.00 48 1016.2
20260510001617 20 146 0.0 1.6 0.00 0.00 0.00 48 1016.1
20260510001137 20 65 3.2 4.8 0.00 0.00 0.00 49 1016.0
20260510000617 20 339 4.8 9.7 0.00 0.00 0.00 48 1016.2
20260510000117 20 0.0 0.0 0.00 0.00 0.00 49 1016.1
20260509235617 20 78 1.6 3.2 0.00 0.00 0.00 49 1016.2
20260509235117 20 40 1.6 3.2 0.00 0.00 0.00 51 1016.2
20260509234617 20 302 1.6 4.8 0.00 0.00 0.00 50 1016.4
20260509234118 20 343 1.6 1.6 0.00 0.00 0.00 49 1016.3
20260509233617 20 0.0 0.0 0.00 0.00 0.00 48 1016.4
20260509233118 20 86 1.6 3.2 0.00 0.00 0.00 50 1016.6
20260509232637 20 302 1.6 4.8 0.00 0.00 0.00 50 1016.5
20260509232117 20 25 3.2 4.8 0.00 0.00 0.00 48 1016.6
20260509231617 20 179 1.6 4.8 0.00 0.00 0.00 50 1016.7
20260509231117 20 356 3.2 4.8 0.00 0.00 0.00 51 1016.7
20260509230617 20 66 1.6 4.8 0.00 0.00 0.00 51 1016.8
20260509230116 19 69 3.2 4.8 0.00 0.00 0.00 52 1017.0
20260509225638 20 4 3.2 4.8 0.00 0.00 0.00 52 1017.1
20260509225118 20 49 3.2 6.4 0.00 0.00 0.00 51 1017.2
20260509224617 20 79 1.6 4.8 0.00 0.00 0.00 52 1017.5
20260509224117 19 86 0.0 1.6 0.00 0.00 0.00 54 1017.3
20260509223617 19 80 3.2 6.4 0.00 0.00 0.00 55 1017.2
20260509223117 20 49 3.2 6.4 0.00 0.00 0.00 54 1017.4
20260509222617 19 175 1.6 3.2 0.00 0.00 0.00 54 1017.5
20260509222117 19 318 1.6 9.7 0.00 0.00 0.00 57 1017.4
20260509221617 19 0.0 0.0 0.00 0.00 0.00 58 1017.6
20260509221117 18 82 1.6 3.2 0.00 0.00 0.00 58 1017.4
20260509220617 19 62 1.6 3.2 0.00 0.00 0.00 58 1017.5
20260509220117 19 47 3.2 6.4 0.00 0.00 0.00 57 1017.4
20260509215617 19 32 6.4 11.3 0.00 0.00 0.00 59 1017.5
20260509215117 19 57 3.2 6.4 0.00 0.00 0.00 58 1017.5
20260509214617 19 66 3.2 4.8 0.00 0.00 0.00 58 1017.6
20260509214117 19 32 3.2 9.7 0.00 0.00 0.00 58 1017.6
20260509213617 20 103 0.0 1.6 0.00 0.00 0.00 58 1017.7
20260509213116 19 86 1.6 4.8 0.00 0.00 0.00 60 1017.7
20260509212637 19 84 1.6 4.8 0.00 0.00 0.00 60 1017.8
20260509212117 18 0.0 0.0 0.00 0.00 0.00 60 1017.8
20260509211617 19 90 1.6 4.8 0.00 0.00 0.00 59 1017.9
20260509211117 18 152 1.6 3.2 0.00 0.00 0.00 60 1017.8
20260509210617 19 61 3.2 6.4 0.00 0.00 0.00 61 1017.8
20260509210117 18 87 3.2 6.4 0.00 0.00 0.00 61 1017.9
20260509205657 19 25 3.2 6.4 0.00 0.00 0.00 60 1018.1
20260509205117 18 83 0.0 3.2 0.00 0.00 0.00 62 1017.9
20260509204617 18 136 1.6 3.2 0.00 0.00 0.00 60 1017.9
20260509204118 19 137 3.2 6.4 0.00 0.00 0.00 60 1018.1
20260509203617 19 108 0.0 1.6 0.00 0.00 0.00 62 1018.1
20260509203118 18 70 1.6 3.2 0.00 0.00 0.00 62 1018.0
20260509202617 19 107 1.6 3.2 0.00 0.00 0.00 61 1018.2
20260509202117 18 87 0.0 1.6 0.00 0.00 0.00 63 1018.1
20260509201617 19 51 3.2 6.4 0.00 0.00 0.00 61 1018.4
20260509201137 19 0.0 0.0 0.00 0.00 0.00 63 1018.3
20260509200617 18 0.0 0.0 0.00 0.00 0.00 64 1018.4
20260509200137 18 31 3.2 4.8 0.00 0.00 0.00 62 1018.5
20260509195617 18 330 4.8 6.4 0.00 0.00 0.00 63 1018.6
20260509195117 18 90 0.0 4.8 0.00 0.00 0.00 66 1018.5
20260509194638 18 32 4.8 6.4 0.00 0.00 0.00 64 1018.8
20260509194117 18 96 0.0 3.2 0.00 0.00 0.00 65 1018.8
20260509193617 18 101 0.0 1.6 0.00 0.00 0.00 65 1018.8
20260509193157 18 76 1.6 4.8 0.00 0.00 0.00 65 1019.0
20260509192617 18 131 3.2 6.4 0.00 0.00 0.00 65 1019.1
20260509192117 18 338 3.2 4.8 0.00 0.00 0.00 65 1018.9
20260509191616 18 101 0.0 1.6 0.00 0.00 0.00 67 1019.1
20260509191137 18 123 3.2 6.4 0.00 0.00 0.00 65 1019.1
20260509190638 18 97 1.6 1.6 0.00 0.00 0.00 66 1019.2
20260509190138 17 152 4.8 6.4 0.00 0.00 0.00 67 1019.2
20260509185617 18 70 1.6 4.8 0.00 0.00 0.00 66 1019.2
20260509185117 17 64 1.6 3.2 0.00 0.00 0.00 66 1019.3
20260509184657 17 87 1.6 1.6 0.00 0.00 0.00 66 1019.4
20260509184117 17 46 3.2 4.8 0.00 0.00 0.00 67 1019.5
20260509183617 17 68 1.6 6.4 0.00 0.00 0.00 67 1019.6
20260509183117 17 0.0 0.0 0.00 0.00 0.00 66 1019.4
20260509182617 17 65 3.2 6.4 0.00 0.00 0.00 66 1019.4
20260509182117 17 97 1.6 1.6 0.00 0.00 0.00 67 1019.3
20260509181617 17 69 1.6 4.8 0.00 0.00 0.00 68 1019.5
20260509181118 16 57 3.2 6.4 0.00 0.00 0.00 68 1019.4
20260509180617 16 79 1.6 4.8 0.00 0.00 0.00 69 1019.4
20260509180117 16 97 0.0 3.2 0.00 0.00 0.00 69 1019.4
20260509175637 16 52 1.6 6.4 0.00 0.00 0.00 70 1019.5
20260509175117 16 68 1.6 3.2 0.00 0.00 0.00 69 1019.7
20260509174717 16 91 0.0 3.2 0.00 0.00 0.00 70 1019.7
20260509174116 16 86 0.0 1.6 0.00 0.00 0.00 70 1019.7
20260509173617 16 84 1.6 3.2 0.00 0.00 0.00 71 1019.6
20260509173118 16 54 4.8 9.7 0.00 0.00 0.00 72 1019.8
20260509172637 16 166 1.6 4.8 0.00 0.00 0.00 73 1019.8
20260509172117 16 59 3.2 4.8 0.00 0.00 0.00 73 1019.6
20260509171617 16 68 1.6 4.8 0.00 0.00 0.00 74 1019.8
20260509171137 16 95 0.0 1.6 0.00 0.00 0.00 74 1019.8
20260509170617 15 51 4.8 6.4 0.00 0.00 0.00 76 1019.8
20260509170117 15 7 3.2 4.8 0.00 0.00 0.00 78 1019.9
20260509165617 15 104 0.0 1.6 0.00 0.00 0.00 78 1020.1
20260509165117 15 67 3.2 4.8 0.00 0.00 0.00 79 1020.1
20260509164617 15 93 1.6 3.2 0.00 0.00 0.00 79 1020.0
20260509164117 14 80 1.6 3.2 0.00 0.00 0.00 79 1020.1
20260509163637 14 0.0 0.0 0.00 0.00 0.00 80 1020.2
20260509163117 14 0.0 0.0 0.00 0.00 0.00 81 1020.3
20260509162617 14 99 0.0 1.6 0.00 0.00 0.00 80 1020.2
20260509162117 14 0.0 0.0 0.00 0.00 0.00 81 1020.2
20260509161617 13 0.0 0.0 0.00 0.00 0.00 82 1020.4
20260509161117 13 0.0 0.0 0.00 0.00 0.00 82 1020.2
20260509160617 13 97 0.0 1.6 0.00 0.00 0.00 83 1020.4
20260509160118 13 0.0 0.0 0.00 0.00 0.00 83 1020.6
20260509155618 13 86 0.0 1.6 0.00 0.00 0.00 82 1020.6
20260509155117 13 0.0 0.0 0.00 0.00 0.00 83 1020.6
20260509154617 13 0.0 0.0 0.00 0.00 0.00 84 1020.6
20260509154117 12 0.0 0.0 0.00 0.00 0.00 84 1020.7
20260509153637 12 0.0 0.0 0.00 0.00 0.00 85 1020.8
20260509153117 12 0.0 0.0 0.00 0.00 0.00 87 1020.9
20260509152616 12 0.0 0.0 0.00 0.00 0.00 87 1020.8
20260509152137 12 0.0 0.0 0.00 0.00 0.00 87 1020.9
20260509151618 12 0.0 0.0 0.00 0.00 0.00 88 1020.9
20260509151137 11 0.0 0.0 0.00 0.00 0.00 89 1021.0
20260509150617 11 0.0 0.0 0.00 0.00 0.00 90 1021.0
20260509150117 11 0.0 0.0 0.00 0.00 0.00 91 1021.2
20260509145617 11 0.0 0.0 0.00 0.00 0.00 92 1021.2
20260509145117 11 0.0 0.0 0.00 0.00 0.00 92 1021.4
20260509144637 10 0.0 0.0 0.00 0.00 0.00 93 1021.3
20260509144136 10 0.0 0.0 0.00 0.00 0.00 94 1021.2
20260509143617 10 0.0 0.0 0.00 0.00 0.00 94 1021.3
20260509143117 10 0.0 0.0 0.00 0.00 0.00 95 1021.3
20260509142617 10 0.0 0.0 0.00 0.00 0.00 97 1021.6
20260509142117 9 0.0 0.0 0.00 0.00 0.00 98 1021.4
20260509141617 9 0.0 0.0 0.00 0.00 0.00 98 1021.4
20260509141117 8 0.0 0.0 0.00 0.00 0.00 99 1021.5
20260509140657 8 0.0 0.0 0.00 0.00 0.00 99 1021.6
20260509140117 8 0.0 0.0 0.00 0.00 0.00 99 1021.5
20260509135617 8 0.0 0.0 0.00 0.00 0.00 99 1021.4
20260509135118 8 0.0 0.0 0.00 0.00 0.00 99 1021.6
20260509134618 8 0.0 0.0 0.00 0.00 0.00 99 1021.7
20260509134117 8 0.0 0.0 0.00 0.00 0.00 99 1021.9
20260509133617 8 0.0 0.0 0.00 0.00 0.00 99 1021.7
20260509133117 8 0.0 0.0 0.00 0.00 0.00 99 1021.7
20260509132617 8 0.0 0.0 0.00 0.00 0.00 99 1021.7
20260509132117 7 0.0 0.0 0.00 0.00 0.00 99 1021.9
20260509131617 8 0.0 0.0 0.00 0.00 0.00 98 1021.8
20260509131117 8 0.0 0.0 0.00 0.00 0.00 98 1021.8
20260509130618 8 0.0 0.0 0.00 0.00 0.00 98 1021.6
20260509130118 8 0.0 0.0 0.00 0.00 0.00 98 1021.5
20260509125617 8 0.0 0.0 0.00 0.00 0.00 98 1021.6
20260509125117 8 0.0 0.0 0.00 0.00 0.00 98 1021.4
20260509124617 8 0.0 0.0 0.00 0.00 0.00 98 1021.5
20260509124117 8 0.0 0.0 0.00 0.00 0.00 98 1021.5
20260509123617 8 0.0 0.0 0.00 0.00 0.00 98 1021.5
20260509123117 8 0.0 0.0 0.00 0.00 0.00 98 1021.5
20260509122617 8 0.0 0.0 0.00 0.00 0.00 98 1021.6
20260509122117 8 0.0 0.0 0.00 0.00 0.00 98 1021.6
20260509121618 8 0.0 0.0 0.00 0.00 0.00 98 1021.6
20260509121157 8 0.0 0.0 0.00 0.00 0.00 97 1021.7
20260509120617 8 0.0 0.0 0.00 0.00 0.00 97 1021.6
20260509120117 8 0.0 0.0 0.00 0.00 0.00 97 1021.6
20260509115617 8 0.0 0.0 0.00 0.00 0.00 97 1021.6
20260509115117 8 0.0 0.0 0.00 0.00 0.00 97 1021.6
20260509114617 8 0.0 0.0 0.00 0.00 0.00 97 1021.7
20260509114117 8 0.0 0.0 0.00 0.00 0.00 97 1021.8
20260509113618 8 0.0 0.0 0.00 0.00 0.00 96 1021.6
20260509113118 8 0.0 0.0 0.00 0.00 0.00 96 1021.7
20260509112618 8 0.0 0.0 0.00 0.00 0.00 96 1021.8
20260509112117 8 0.0 0.0 0.00 0.00 0.00 96 1021.6
20260509111617 8 0.0 0.0 0.00 0.00 0.00 95 1021.6
20260509111117 8 0.0 0.0 0.00 0.00 0.00 95 1021.7
20260509110617 8 0.0 0.0 0.00 0.00 0.00 94 1021.7
20260509110137 9 0.0 0.0 0.00 0.00 0.00 94 1021.8
20260509105617 9 0.0 0.0 0.00 0.00 0.00 94 1021.8
20260509105158 9 0.0 0.0 0.00 0.00 0.00 94 1021.7
20260509104638 9 0.0 0.0 0.00 0.00 0.00 93 1021.9
20260509104138 10 0.0 0.0 0.00 0.00 0.00 93 1021.7
20260509103638 10 0.0 0.0 0.00 0.00 0.00 93 1021.7
20260509103117 10 0.0 0.0 0.00 0.00 0.00 92 1021.9
20260509102617 10 0.0 0.0 0.00 0.00 0.00 92 1021.9
20260509102117 10 0.0 0.0 0.00 0.00 0.00 92 1021.9
20260509101617 10 0.0 0.0 0.00 0.00 0.00 91 1021.7
20260509101117 10 0.0 0.0 0.00 0.00 0.00 90 1021.8
20260509100637 10 0.0 0.0 0.00 0.00 0.00 90 1021.9
20260509100117 11 0.0 0.0 0.00 0.00 0.00 89 1021.9
20260509095617 11 0.0 0.0 0.00 0.00 0.00 89 1022.1
20260509095117 11 0.0 0.0 0.00 0.00 0.00 89 1022.1
20260509094617 11 0.0 0.0 0.00 0.00 0.00 89 1022.1
20260509094117 11 0.0 0.0 0.00 0.00 0.00 88 1022.0
20260509093617 11 0.0 0.0 0.00 0.00 0.00 88 1022.0
20260509093117 11 0.0 0.0 0.00 0.00 0.00 88 1022.2
20260509092616 11 0.0 0.0 0.00 0.00 0.00 88 1022.0
20260509092117 11 0.0 0.0 0.00 0.00 0.00 88 1022.2
20260509091638 11 0.0 0.0 0.00 0.00 0.00 87 1022.2
20260509091118 11 0.0 0.0 0.00 0.00 0.00 87 1022.3
20260509090617 11 0.0 0.0 0.00 0.00 0.00 87 1022.4
20260509090157 11 0.0 0.0 0.00 0.00 0.00 87 1022.3
20260509085617 11 0.0 0.0 0.00 0.00 0.00 86 1022.4
20260509085137 11 0.0 0.0 0.00 0.00 0.00 87 1022.1
20260509084617 11 0.0 0.0 0.00 0.00 0.00 87 1022.3
20260509084116 11 0.0 0.0 0.00 0.00 0.00 86 1022.4
20260509083618 11 0.0 0.0 0.00 0.00 0.00 86 1022.1
20260509083117 11 0.0 0.0 0.00 0.00 0.00 86 1022.4
20260509082638 11 0.0 0.0 0.00 0.00 0.00 86 1022.3
20260509082137 11 0.0 0.0 0.00 0.00 0.00 86 1022.3
20260509081617 11 0.0 0.0 0.00 0.00 0.00 86 1022.4
20260509081117 11 0.0 0.0 0.00 0.00 0.00 85 1022.3
20260509080617 11 0.0 0.0 0.00 0.00 0.00 86 1022.2
20260509080137 11 0.0 0.0 0.00 0.00 0.00 86 1022.3
20260509075617 11 0.0 0.0 0.00 0.00 0.00 85 1022.2
20260509075118 11 0.0 0.0 0.00 0.00 0.00 85 1022.3
20260509074618 11 0.0 0.0 0.00 0.00 0.00 85 1022.2
20260509074117 11 0.0 0.0 0.00 0.00 0.00 84 1022.1
20260509073637 11 0.0 0.0 0.00 0.00 0.00 84 1022.1
20260509073117 11 0.0 0.0 0.00 0.00 0.00 85 1022.1
20260509072617 11 0.0 0.0 0.00 0.00 0.00 85 1022.2
20260509072117 11 0.0 0.0 0.00 0.00 0.00 84 1022.2
20260509071637 11 0.0 0.0 0.00 0.00 0.00 85 1022.1
20260509071117 11 0.0 0.0 0.00 0.00 0.00 84 1022.1
20260509070617 11 0.0 0.0 0.00 0.00 0.00 84 1022.0
20260509070117 11 0.0 0.0 0.00 0.00 0.00 84 1022.1
20260509065617 11 0.0 0.0 0.00 0.00 0.00 84 1022.3
20260509065117 11 0.0 0.0 0.00 0.00 0.00 84 1022.1
20260509064617 11 0.0 0.0 0.00 0.00 0.00 85 1022.1
20260509064117 11 0.0 0.0 0.00 0.00 0.00 84 1022.0
20260509063637 11 0.0 0.0 0.00 0.00 0.00 85 1022.1
20260509063117 11 0.0 0.0 0.00 0.00 0.00 85 1022.0
20260509062616 11 0.0 0.0 0.00 0.00 0.00 85 1021.9
20260509062118 11 0.0 0.0 0.00 0.00 0.00 85 1021.9
20260509061617 11 0.0 0.0 0.00 0.00 0.00 86 1021.9
20260509061117 11 0.0 0.0 0.00 0.00 0.00 86 1022.0
20260509060617 11 0.0 0.0 0.00 0.00 0.00 85 1021.9
20260509060117 11 0.0 0.0 0.00 0.00 0.00 85 1021.8
20260509055617 11 0.0 0.0 0.00 0.00 0.00 86 1021.8
20260509055137 11 0.0 0.0 0.00 0.00 0.00 86 1021.8
20260509054637 11 0.0 0.0 0.00 0.00 0.00 85 1021.7
20260509054117 11 0.0 0.0 0.00 0.00 0.00 85 1021.8
20260509053617 11 0.0 0.0 0.00 0.00 0.00 84 1021.8
20260509053137 11 0.0 0.0 0.00 0.00 0.00 85 1021.7
20260509052617 11 0.0 0.0 0.00 0.00 0.00 84 1021.9
20260509052137 11 0.0 0.0 0.00 0.00 0.00 84 1021.7
20260509051617 11 0.0 0.0 0.00 0.00 0.00 83 1021.8
20260509051117 11 0.0 0.0 0.00 0.00 0.00 82 1021.7
20260509050618 11 0.0 0.0 0.00 0.00 0.00 82 1021.6
20260509050117 11 0.0 0.0 0.00 0.00 0.00 82 1021.6
20260509045617 11 0.0 0.0 0.00 0.00 0.00 82 1021.8
20260509045117 11 0.0 0.0 0.00 0.00 0.00 82 1021.7
20260509044637 11 0.0 0.0 0.00 0.00 0.00 82 1021.6
20260509044117 11 0.0 0.0 0.00 0.00 0.00 81 1021.6
20260509043618 11 0.0 0.0 0.00 0.00 0.00 80 1021.5
20260509043117 12 0.0 0.0 0.00 0.00 0.00 79 1021.5
20260509042617 11 78 1.6 4.8 0.00 0.00 0.00 79 1021.6
20260509042117 11 0.0 0.0 0.00 0.00 0.00 80 1021.3
20260509041617 12 0.0 0.0 0.00 0.00 0.00 78 1021.5
20260509041117 12 0.0 0.0 0.00 0.00 0.00 78 1021.3
20260509040616 12 0.0 0.0 0.00 0.00 0.00 77 1021.2
20260509040118 12 0.0 0.0 0.00 0.00 0.00 77 1021.2
20260509035638 12 97 0.0 1.6 0.00 0.00 0.00 75 1021.1
20260509035137 12 141 1.6 4.8 0.00 0.00 0.00 75 1021.1
20260509034637 12 0.0 0.0 0.00 0.00 0.00 74 1021.0
20260509034117 12 0.0 0.0 0.00 0.00 0.00 74 1021.0
20260509033617 12 0.0 0.0 0.00 0.00 0.00 74 1021.0
20260509033117 13 0.0 0.0 0.00 0.00 0.00 73 1020.8
20260509032617 13 0.0 0.0 0.00 0.00 0.00 72 1020.7
20260509032116 13 0.0 0.0 0.00 0.00 0.00 71 1020.8
20260509031618 13 0.0 0.0 0.00 0.00 0.00 69 1020.7